Tracking 28052 objects as of 22-Sep-2023
HD Live streaming from Space Station
objects crossing your sky now

STARLINK-4560

Track STARLINK-4560 now!
10-day predictions


NORAD ID: 53691
Int'l Code: 2022-105AV
Perigee: 568.9 km
Apogee: 571.3 km
Inclination: 97.7 °
Period: 95.9 minutes
Semi major axis: 6941 km
RCS: Unknown
Launch date: August 31, 2022
Source: United States (US)
Launch site: AIR FORCE WESTERN TEST RANGE (AFWTR)
Your satellite tracking list
Your tracking list is empty




NASA's NSSDC Master Catalog

Two Line Element Set (TLE):
1 53691U 22105AV  23264.91387456  .00010276  00000-0  80320-3 0  9996
2 53691  97.6550 144.5863 0001680  91.3059 268.8358 15.01272796 58240
Source of the keplerian elements: AFSPC